Time,TemperatureF,DewpointF,PressureIn,WindDirection,WindDirectionDegrees,WindSpeedMPH,WindSpeedGustMPH,Humidity,HourlyPrecipIn,Conditions,Clouds,dailyrainin,SoftwareType,DateUTC
2013-06-25 00:01:00,72.0,64.0,29.96,North,-999,-999.0,-999.0,77,-99.99,,,-99.99,,2013-06-25 04:01:00,
2013-06-25 00:22:00,71.0,64.0,29.96,North,-999,-999.0,-999.0,79,-99.99,,,-99.99,,2013-06-25 04:22:00,
2013-06-25 00:52:00,71.0,64.0,29.96,North,-999,-999.0,-999.0,77,-99.99,,,-99.99,,2013-06-25 04:52:00,
2013-06-25 01:01:00,71.0,64.0,29.96,North,-999,-999.0,-999.0,78,-99.99,,,-99.99,,2013-06-25 05:01:00,
2013-06-25 01:11:00,71.0,64.0,29.96,North,-999,-999.0,-999.0,78,-99.99,,,-99.99,,2013-06-25 05:11:00,
2013-06-25 01:52:00,69.0,63.0,29.96,North,-999,-999.0,-999.0,81,-99.99,,,-99.99,,2013-06-25 05:52:00,
2013-06-25 02:11:00,70.0,63.0,29.96,North,-999,-999.0,-999.0,79,-99.99,,,-99.99,,2013-06-25 06:11:00,
2013-06-25 02:22:00,70.0,63.0,29.96,North,-999,-999.0,-999.0,79,-99.99,,,-99.99,,2013-06-25 06:22:00,
2013-06-25 02:43:00,70.0,63.0,29.95,North,-999,-999.0,-999.0,79,-99.99,,,-99.99,,2013-06-25 06:43:00,
2013-06-25 02:52:00,70.0,63.0,29.95,North,-999,-999.0,-999.0,78,-99.99,,,-99.99,,2013-06-25 06:52:00,
2013-06-25 03:02:00,70.0,63.0,29.95,North,-999,-999.0,-999.0,78,-99.99,,,-99.99,,2013-06-25 07:02:00,
2013-06-25 03:11:00,69.0,63.0,29.95,North,-999,-999.0,-999.0,79,-99.99,,,-99.99,,2013-06-25 07:11:00,
2013-06-25 03:22:00,69.0,63.0,29.94,North,-999,-999.0,-999.0,80,-99.99,,,-99.99,,2013-06-25 07:22:00,
2013-06-25 03:43:00,69.0,63.0,29.94,North,-999,-999.0,-999.0,78,-99.99,,,-99.99,,2013-06-25 07:43:00,
2013-06-25 03:52:00,70.0,62.0,29.94,North,-999,-999.0,-999.0,77,-99.99,,,-99.99,,2013-06-25 07:52:00,
2013-06-25 04:02:00,70.0,62.0,29.94,North,-999,-999.0,-999.0,77,-99.99,,,-99.99,,2013-06-25 08:02:00,
2013-06-25 04:11:00,70.0,62.0,29.93,North,-999,-999.0,-999.0,77,-99.99,,,-99.99,,2013-06-25 08:11:00,
2013-06-25 04:22:00,69.0,63.0,29.94,North,-999,-999.0,-999.0,79,-99.99,,,-99.99,,2013-06-25 08:22:00,
2013-06-25 04:53:00,70.0,62.0,29.95,North,-999,-999.0,-999.0,75,-99.99,,,-99.99,,2013-06-25 08:53:00,
2013-06-25 05:12:00,70.0,62.0,29.95,North,-999,-999.0,-999.0,74,-99.99,,,-99.99,,2013-06-25 09:12:00,
2013-06-25 05:22:00,70.0,62.0,29.94,North,-999,-999.0,-999.0,74,-99.99,,,-99.99,,2013-06-25 09:22:00,
2013-06-25 05:53:00,69.0,62.0,29.95,North,-999,-999.0,-999.0,76,-99.99,,,-99.99,,2013-06-25 09:53:00,
2013-06-25 06:01:00,69.0,62.0,29.95,North,-999,-999.0,-999.0,76,-99.99,,,-99.99,,2013-06-25 10:01:00,
2013-06-25 06:11:00,70.0,62.0,29.95,North,-999,-999.0,-999.0,75,-99.99,,,-99.99,,2013-06-25 10:11:00,
2013-06-25 06:22:00,70.0,62.0,29.95,North,-999,-999.0,-999.0,75,-99.99,,,-99.99,,2013-06-25 10:22:00,
2013-06-25 06:43:00,69.0,62.0,29.94,North,-999,-999.0,-999.0,75,-99.99,,,-99.99,,2013-06-25 10:43:00,
2013-06-25 06:52:00,70.0,62.0,29.94,North,-999,-999.0,-999.0,75,-99.99,,,-99.99,,2013-06-25 10:52:00,
2013-06-25 07:02:00,70.0,62.0,29.94,North,-999,-999.0,-999.0,75,-99.99,,,-99.99,,2013-06-25 11:02:00,
2013-06-25 07:12:00,70.0,62.0,29.94,North,-999,-999.0,-999.0,74,-99.99,,,-99.99,,2013-06-25 11:12:00,
2013-06-25 07:22:00,71.0,62.0,29.93,North,-999,-999.0,-999.0,73,-99.99,,,-99.99,,2013-06-25 11:22:00,
2013-06-25 07:34:00,72.0,62.0,29.93,North,-999,-999.0,-999.0,71,-99.99,,,-99.99,,2013-06-25 11:34:00,
2013-06-25 07:52:00,72.0,62.0,29.93,North,-999,-999.0,-999.0,69,-99.99,,,-99.99,,2013-06-25 11:52:00,
2013-06-25 08:02:00,73.0,62.0,29.93,North,-999,-999.0,-999.0,69,-99.99,,,-99.99,,2013-06-25 12:02:00,
2013-06-25 08:11:00,73.0,62.0,29.93,North,-999,-999.0,-999.0,69,-99.99,,,-99.99,,2013-06-25 12:11:00,
2013-06-25 08:22:00,74.0,63.0,29.93,North,-999,-999.0,-999.0,67,-99.99,,,-99.99,,2013-06-25 12:22:00,
2013-06-25 08:43:00,75.0,63.0,29.93,North,-999,-999.0,-999.0,65,-99.99,,,-99.99,,2013-06-25 12:43:00,
2013-06-25 08:55:00,76.0,63.0,29.93,North,-999,-999.0,-999.0,64,-99.99,,,-99.99,,2013-06-25 12:55:00,
2013-06-25 09:12:00,76.0,62.0,29.93,North,-999,-999.0,-999.0,61,-99.99,,,-99.99,,2013-06-25 13:12:00,
2013-06-25 09:34:00,78.0,63.0,29.93,North,-999,-999.0,-999.0,61,-99.99,,,-99.99,,2013-06-25 13:34:00,
2013-06-25 09:53:00,78.0,64.0,29.92,North,-999,-999.0,-999.0,60,-99.99,,,-99.99,,2013-06-25 13:53:00,
2013-06-25 10:11:00,79.0,63.0,29.92,North,-999,-999.0,-999.0,58,-99.99,,,-99.99,,2013-06-25 14:11:00,
2013-06-25 10:23:00,79.0,63.0,29.92,North,-999,-999.0,-999.0,57,-99.99,,,-99.99,,2013-06-25 14:23:00,
2013-06-25 10:34:00,79.0,63.0,29.92,North,-999,-999.0,-999.0,57,-99.99,,,-99.99,,2013-06-25 14:34:00,
2013-06-25 10:43:00,81.0,64.0,29.92,North,-999,-999.0,-999.0,56,-99.99,,,-99.99,,2013-06-25 14:43:00,
2013-06-25 10:53:00,81.0,64.0,29.93,North,-999,-999.0,-999.0,57,-99.99,,,-99.99,,2013-06-25 14:53:00,
2013-06-25 11:11:00,82.0,65.0,29.93,North,-999,-999.0,-999.0,54,-99.99,,,-99.99,,2013-06-25 15:11:00,
2013-06-25 11:22:00,82.0,64.0,29.93,North,-999,-999.0,-999.0,54,-99.99,,,-99.99,,2013-06-25 15:22:00,
2013-06-25 11:32:00,82.0,64.0,29.93,North,-999,-999.0,-999.0,54,-99.99,,,-99.99,,2013-06-25 15:32:00,
2013-06-25 11:44:00,82.0,64.0,29.93,North,-999,-999.0,-999.0,54,-99.99,,,-99.99,,2013-06-25 15:44:00,
2013-06-25 11:53:00,83.0,64.0,29.93,North,-999,-999.0,-999.0,52,-99.99,,,-99.99,,2013-06-25 15:53:00,
2013-06-25 12:03:00,83.0,64.0,29.93,North,-999,-999.0,-999.0,52,-99.99,,,-99.99,,2013-06-25 16:03:00,
2013-06-25 12:12:00,84.0,66.0,29.92,North,-999,-999.0,-999.0,54,-99.99,,,-99.99,,2013-06-25 16:12:00,
2013-06-25 12:23:00,85.0,65.0,29.92,North,-999,-999.0,-999.0,50,-99.99,,,-99.99,,2013-06-25 16:23:00,
2013-06-25 12:52:00,86.0,65.0,29.91,North,-999,-999.0,-999.0,49,-99.99,,,-99.99,,2013-06-25 16:52:00,
2013-06-25 13:01:00,86.0,65.0,29.91,North,-999,-999.0,-999.0,49,-99.99,,,-99.99,,2013-06-25 17:01:00,
2013-06-25 13:11:00,87.0,65.0,29.91,North,-999,-999.0,-999.0,49,-99.99,,,-99.99,,2013-06-25 17:11:00,
2013-06-25 13:22:00,86.0,65.0,29.90,North,-999,-999.0,-999.0,48,-99.99,,,-99.99,,2013-06-25 17:22:00,
2013-06-25 13:44:00,87.0,64.0,29.89,North,-999,-999.0,-999.0,46,-99.99,,,-99.99,,2013-06-25 17:44:00,
2013-06-25 13:53:00,87.0,64.0,29.89,North,-999,-999.0,-999.0,46,-99.99,,,-99.99,,2013-06-25 17:53:00,
2013-06-25 14:02:00,87.0,64.0,29.89,North,-999,-999.0,-999.0,46,-99.99,,,-99.99,,2013-06-25 18:02:00,
2013-06-25 14:12:00,88.0,63.0,29.88,North,-999,-999.0,-999.0,43,-99.99,,,-99.99,,2013-06-25 18:12:00,
2013-06-25 14:34:00,88.0,63.0,29.88,North,-999,-999.0,-999.0,43,-99.99,,,-99.99,,2013-06-25 18:34:00,
2013-06-25 14:53:00,88.0,63.0,29.86,North,-999,-999.0,-999.0,42,-99.99,,,-99.99,,2013-06-25 18:53:00,
2013-06-25 15:01:00,88.0,63.0,29.86,North,-999,-999.0,-999.0,42,-99.99,,,-99.99,,2013-06-25 19:01:00,
2013-06-25 15:12:00,88.0,63.0,29.85,North,-999,-999.0,-999.0,43,-99.99,,,-99.99,,2013-06-25 19:12:00,
2013-06-25 15:54:00,88.0,62.0,29.83,North,-999,-999.0,-999.0,42,-99.99,,,-99.99,,2013-06-25 19:54:00,
2013-06-25 16:02:00,88.0,62.0,29.83,North,-999,-999.0,-999.0,42,-99.99,,,-99.99,,2013-06-25 20:02:00,
2013-06-25 16:11:00,88.0,63.0,29.82,North,-999,-999.0,-999.0,44,-99.99,,,-99.99,,2013-06-25 20:11:00,
2013-06-25 16:22:00,88.0,64.0,29.82,North,-999,-999.0,-999.0,45,-99.99,,,-99.99,,2013-06-25 20:22:00,
2013-06-25 16:42:00,88.0,63.0,29.81,North,-999,-999.0,-999.0,43,-99.99,,,-99.99,,2013-06-25 20:42:00,
2013-06-25 16:52:00,88.0,62.0,29.80,North,-999,-999.0,-999.0,42,-99.99,,,-99.99,,2013-06-25 20:52:00,
2013-06-25 17:01:00,88.0,62.0,29.80,North,-999,-999.0,-999.0,42,-99.99,,,-99.99,,2013-06-25 21:01:00,
2013-06-25 17:11:00,88.0,62.0,29.80,North,-999,-999.0,-999.0,42,-99.99,,,-99.99,,2013-06-25 21:11:00,
2013-06-25 17:22:00,89.0,62.0,29.80,North,-999,-999.0,-999.0,41,-99.99,,,-99.99,,2013-06-25 21:22:00,
2013-06-25 17:34:00,88.0,63.0,29.81,North,-999,-999.0,-999.0,43,-99.99,,,-99.99,,2013-06-25 21:34:00,
2013-06-25 17:53:00,87.0,63.0,29.80,North,-999,-999.0,-999.0,45,-99.99,,,-99.99,,2013-06-25 21:53:00,
2013-06-25 18:01:00,87.0,64.0,29.79,North,-999,-999.0,-999.0,46,-99.99,,,-99.99,,2013-06-25 22:01:00,
2013-06-25 18:11:00,87.0,64.0,29.79,North,-999,-999.0,-999.0,46,-99.99,,,-99.99,,2013-06-25 22:11:00,
2013-06-25 18:22:00,86.0,64.0,29.79,North,-999,-999.0,-999.0,48,-99.99,,,-99.99,,2013-06-25 22:22:00,
2013-06-25 18:34:00,86.0,64.0,29.78,North,-999,-999.0,-999.0,49,-99.99,,,-99.99,,2013-06-25 22:34:00,
2013-06-25 18:42:00,86.0,64.0,29.78,North,-999,-999.0,-999.0,49,-99.99,,,-99.99,,2013-06-25 22:42:00,
2013-06-25 18:52:00,86.0,65.0,29.78,North,-999,-999.0,-999.0,49,-99.99,,,-99.99,,2013-06-25 22:52:00,
2013-06-25 19:01:00,85.0,65.0,29.78,North,-999,-999.0,-999.0,50,-99.99,,,-99.99,,2013-06-25 23:01:00,
2013-06-25 19:11:00,85.0,65.0,29.78,North,-999,-999.0,-999.0,50,-99.99,,,-99.99,,2013-06-25 23:11:00,
2013-06-25 19:22:00,85.0,65.0,29.78,North,-999,-999.0,-999.0,51,-99.99,,,-99.99,,2013-06-25 23:22:00,
2013-06-25 19:34:00,85.0,65.0,29.77,North,-999,-999.0,-999.0,50,-99.99,,,-99.99,,2013-06-25 23:34:00,
2013-06-25 19:44:00,85.0,65.0,29.77,North,-999,-999.0,-999.0,50,-99.99,,,-99.99,,2013-06-25 23:44:00,
2013-06-25 19:52:00,84.0,65.0,29.77,North,-999,-999.0,-999.0,51,-99.99,,,-99.99,,2013-06-25 23:52:00,
2013-06-25 20:02:00,84.0,65.0,29.77,North,-999,-999.0,-999.0,51,-99.99,,,-99.99,,2013-06-26 00:02:00,
2013-06-25 20:11:00,84.0,65.0,29.77,North,-999,-999.0,-999.0,51,-99.99,,,-99.99,,2013-06-26 00:11:00,
2013-06-25 20:22:00,84.0,65.0,29.77,North,-999,-999.0,-999.0,51,-99.99,,,-99.99,,2013-06-26 00:22:00,
2013-06-25 20:33:00,85.0,64.0,29.76,North,-999,-999.0,-999.0,50,-99.99,,,-99.99,,2013-06-26 00:33:00,
2013-06-25 20:53:00,84.0,66.0,29.76,North,-999,-999.0,-999.0,52,-99.99,,,-99.99,,2013-06-26 00:53:00,
2013-06-25 21:01:00,77.0,67.0,29.79,North,-999,-999.0,-999.0,71,-99.99,,,-99.99,,2013-06-26 01:01:00,
2013-06-25 21:11:00,77.0,67.0,29.79,North,-999,-999.0,-999.0,71,-99.99,,,-99.99,,2013-06-26 01:11:00,
2013-06-25 21:43:00,73.0,68.0,29.79,North,-999,-999.0,-999.0,85,-99.99,,,-99.99,,2013-06-26 01:43:00,
2013-06-25 21:53:00,73.0,68.0,29.79,North,-999,-999.0,-999.0,84,-99.99,,,-99.99,,2013-06-26 01:53:00,
2013-06-25 22:02:00,73.0,68.0,29.80,North,-999,-999.0,-999.0,84,-99.99,,,-99.99,,2013-06-26 02:02:00,
2013-06-25 22:11:00,73.0,68.0,29.80,North,-999,-999.0,-999.0,84,-99.99,,,-99.99,,2013-06-26 02:11:00,
2013-06-25 22:34:00,73.0,68.0,29.80,North,-999,-999.0,-999.0,85,-99.99,,,-99.99,,2013-06-26 02:34:00,
2013-06-25 22:53:00,72.0,68.0,29.80,North,-999,-999.0,-999.0,86,-99.99,,,-99.99,,2013-06-26 02:53:00,
2013-06-25 23:02:00,72.0,68.0,29.80,North,-999,-999.0,-999.0,86,-99.99,,,-99.99,,2013-06-26 03:02:00,
2013-06-25 23:11:00,72.0,68.0,29.81,North,-999,-999.0,-999.0,87,-99.99,,,-99.99,,2013-06-26 03:11:00,
2013-06-25 23:22:00,72.0,68.0,29.80,North,-999,-999.0,-999.0,87,-99.99,,,-99.99,,2013-06-26 03:22:00,
2013-06-25 23:33:00,72.0,68.0,29.80,North,-999,-999.0,-999.0,88,-99.99,,,-99.99,,2013-06-26 03:33:00,
2013-06-25 23:52:00,72.0,68.0,29.79,North,-999,-999.0,-999.0,86,-99.99,,,-99.99,,2013-06-26 03:52:00,